GW6780 Weather Reports


time (UTC)temp
C
wind
direction
speed
KPH
gust
KPH
rain 1hr
cm
rain 24hr
cm
rain mn
cm
humidity
%
barometer
mb
20260906051604 11 236 3.2 11.3 0.00 0.00 0.00 84 1024.1
20260906051102 11 256 3.2 9.7 0.00 0.00 0.00 84 1024.0
20260906045604 10 319 1.6 4.8 0.00 0.00 0.00 84 1023.8
20260906045102 10 237 3.2 11.3 0.00 0.00 0.00 84 1023.8
20260906044605 10 235 3.2 11.3 0.00 0.00 0.00 84 1023.7
20260906044102 10 244 3.2 6.4 0.00 0.00 0.00 84 1023.7
20260906043604 10 251 3.2 11.3 0.00 0.00 0.00 84 1023.7
20260906043102 11 259 3.2 11.3 0.00 0.00 0.00 84 1023.7
20260906042101 11 246 3.2 14.5 0.00 0.00 0.00 83 1023.6
20260906041604 11 262 1.6 14.5 0.00 0.00 0.00 83 1023.6
20260906041103 11 287 3.2 11.3 0.00 0.00 0.00 83 1023.5
20260906040617 11 248 3.2 11.3 0.00 0.00 0.00 83 1023.4
20260906034604 11 242 3.2 14.5 0.00 0.00 0.00 83 1023.4
20260906034102 11 304 1.6 8.0 0.00 0.00 0.00 83 1023.3
20260906033101 11 270 1.6 6.4 0.00 0.00 0.00 83 1023.3
20260906032605 11 269 1.6 6.4 0.00 0.00 0.00 83 1023.2
20260906031605 11 297 3.2 8.0 0.00 0.00 0.00 82 1023.2
20260906030604 11 250 4.8 11.3 0.00 0.00 0.00 82 1023.1
20260906025605 11 314 1.6 12.9 0.00 0.00 0.00 83 1023.1
20260906024604 11 276 1.6 9.7 0.00 0.00 0.00 83 1023.0
20260906023604 11 257 0.0 4.8 0.00 0.00 0.00 83 1023.0
20260906023102 11 262 0.0 4.8 0.00 0.00 0.00 83 1022.9
20260906022605 11 261 1.6 6.4 0.00 0.00 0.00 82 1076.7
20260906022102 11 233 1.6 6.4 0.00 0.00 0.00 82 1022.9
20260906021604 11 234 1.6 9.7 0.00 0.00 0.00 82 1022.9
20260906021102 11 267 1.6 9.7 0.00 0.00 0.00 82 1022.8
20260906020605 12 279 1.6 6.4 0.00 0.00 0.00 82 1022.8
20260906014603 12 259 1.6 8.0 0.00 0.00 0.00 82 1022.6
20260906014102 12 254 1.6 8.0 0.00 0.00 0.00 82 1022.5
20260906013603 12 277 1.6 8.0 0.00 0.00 0.00 81 1022.5
20260906013102 12 320 1.6 11.3 0.00 0.00 0.00 81 1022.4
20260906012102 12 271 1.6 9.7 0.00 0.00 0.00 81 1022.4
20260906011603 12 282 1.6 9.7 0.00 0.00 0.00 81 1022.4
20260906011102 12 306 1.6 6.4 0.00 0.03 0.00 81 1022.4
20260906010603 12 283 1.6 6.4 0.00 0.03 0.00 81 1022.4
20260906005102 12 287 3.2 11.3 0.00 0.05 0.00 81 1022.4
20260906004602 12 257 3.2 12.9 0.00 0.08 0.00 81 1022.4
20260906004101 12 290 3.2 12.9 0.00 0.08 0.00 81 1022.2
20260906003604 12 272 3.2 14.5 0.00 0.08 0.00 81 1022.2
20260906003102 12 297 4.8 14.5 0.00 0.10 0.00 82 1022.4
20260906002601 12 288 3.2 11.3 0.00 0.10 0.00 82 1022.4
20260906001605 12 259 1.6 11.3 0.00 0.10 0.00 82 1022.4
20260905235102 12 267 0.0 4.8 0.00 0.13 0.00 81 1021.9
20260905234602 12 277 0.0 4.8 0.00 0.13 0.00 81 1022.0
20260905234102 12 295 0.0 3.2 0.00 0.13 0.00 81 1021.8
20260905233602 12 296 1.6 4.8 0.00 0.13 0.00 81 1021.8
20260905233102 12 290 1.6 4.8 0.00 0.13 0.00 81 1021.8
20260905232602 12 291 1.6 4.8 0.00 0.13 0.00 81 1021.9
20260905232102 12 280 1.6 6.4 0.00 0.13 0.00 81 1021.7
20260905231115 12 260 1.6 8.0 0.00 0.13 0.00 81 1021.7
20260905224602 12 271 1.6 8.0 0.00 0.13 0.00 79 1021.6
20260905224102 12 239 0.0 9.7 0.00 0.13 0.00 79 1021.5
20260905223602 13 240 1.6 9.7 0.00 0.15 0.00 78 1021.6
20260905223101 13 238 3.2 12.9 0.00 0.15 0.00 78 1021.4
20260905222601 13 276 3.2 12.9 0.00 0.15 0.00 78 1021.5
20260905221601 13 265 3.2 12.9 0.00 0.18 0.00 78 1021.4
20260905220602 13 273 1.6 9.7 0.00 0.18 0.00 77 1021.2
20260905215101 13 265 4.8 14.5 0.00 0.23 0.20 76 1021.2
20260905214602 13 246 4.8 14.5 0.00 0.25 0.20 76 1021.2
20260905214101 13 249 3.2 11.3 0.00 0.28 0.20 75 1021.3
20260905213601 13 252 3.2 12.9 0.00 0.33 0.20 75 1021.2
20260905213102 14 302 3.2 12.9 0.00 0.33 0.20 75 1021.2
20260905212106 14 282 1.6 9.7 0.00 0.36 0.20 74 1021.1
20260905211602 14 269 4.8 19.3 0.00 0.43 0.20 74 1021.0
20260905211104 14 200 8.0 19.3 0.00 0.51 0.20 74 1021.0
20260905210602 14 277 6.4 16.1 0.00 0.51 0.20 73 1021.0
20260905205603 14 284 6.4 20.9 0.00 0.64 0.20 73 1021.1
20260905204602 14 294 6.4 22.5 0.00 0.71 0.20 73 1020.9
20260905204104 14 297 8.0 22.5 0.00 0.74 0.20 73 1020.8
20260905203602 14 260 6.4 19.3 0.00 0.76 0.20 73 1020.9
20260905203103 14 284 4.8 16.1 0.00 0.76 0.20 73 1020.8
20260905202103 14 281 4.8 19.3 0.00 0.79 0.20 74 1020.6
20260905201602 14 276 6.4 16.1 0.00 0.79 0.20 74 1020.6
20260905201103 14 263 6.4 17.7 0.00 0.79 0.20 74 1020.6
20260905200601 14 231 1.6 17.7 0.00 0.79 0.20 74 1020.4
20260905195602 15 0 1.6 6.4 0.00 0.79 0.20 72 1020.3
20260905195106 15 246 3.2 11.3 0.00 0.79 0.20 72 1020.3
20260905194602 15 253 3.2 11.3 0.00 0.79 0.20 71 1020.2
20260905194103 15 263 3.2 11.3 0.00 0.79 0.20 70 1020.1
20260905193104 15 264 6.4 22.5 0.00 0.79 0.20 69 1020.0
20260905192601 15 282 8.0 25.7 0.00 0.79 0.20 69 1020.0
20260905192103 15 269 6.4 25.7 0.00 0.79 0.20 69 1019.8
20260905191103 16 232 8.0 19.3 0.00 0.79 0.20 68 1019.7
20260905190103 16 269 6.4 19.3 0.00 0.79 0.20 67 1019.6
20260905185602 16 302 6.4 20.9 0.00 0.79 0.20 67 1019.6
20260905184602 16 321 8.0 20.9 0.00 0.79 0.20 66 1019.5
20260905184103 16 264 6.4 20.9 0.00 0.79 0.20 66 1019.4
20260905183602 16 292 8.0 22.5 0.00 0.79 0.20 66 1019.4
20260905183103 16 304 6.4 22.5 0.00 0.79 0.20 66 1019.5
20260905182103 16 167 6.4 20.9 0.00 0.79 0.20 65 1019.3
20260905181103 16 276 8.0 24.1 0.00 0.79 0.20 64 1019.2
20260905180602 16 296 9.7 24.1 0.00 0.79 0.20 64 1019.1
20260905180104 16 261 8.0 20.9 0.00 0.79 0.20 64 1019.0
20260905175602 16 238 8.0 19.3 0.00 0.79 0.20 64 1019.0
20260905175103 16 300 8.0 24.1 0.00 0.79 0.20 64 1019.0
20260905174602 16 281 8.0 24.1 0.00 0.79 0.20 64 1019.0
20260905174105 16 303 8.0 19.3 0.00 0.79 0.20 64 1018.9
20260905173602 16 240 6.4 17.7 0.00 0.79 0.20 64 1018.7
20260905173104 16 275 4.8 17.7 0.00 0.79 0.20 64 1018.7
20260905172104 17 272 8.0 25.7 0.00 0.79 0.20 62 1018.6
20260905171602 17 105 9.7 25.7 0.00 0.79 0.20 62 1018.5
20260905171106 17 248 9.7 29.0 0.00 0.79 0.20 61 1018.4
20260905165602 17 302 9.7 24.1 0.00 0.79 0.20 61 1018.1
20260905165104 17 263 9.7 24.1 0.00 0.79 0.20 62 1018.2
20260905164106 17 240 11.3 32.2 0.00 0.79 0.20 60 1018.0
20260905163602 18 162 11.3 29.0 0.00 0.79 0.20 60 1018.0
20260905162602 18 273 12.9 27.4 0.00 0.79 0.20 60 1017.9
20260905161602 18 259 9.7 27.4 0.00 0.79 0.20 60 1017.8
20260905155602 18 246 11.3 30.6 0.00 0.79 0.20 60 1017.6
20260905154601 18 348 12.9 30.6 0.00 0.79 0.20 60 1017.6
20260905154102 18 252 11.3 32.2 0.00 0.79 0.20 61 1017.4
20260905153602 18 207 14.5 32.2 0.00 0.79 0.20 60 1017.4
20260905153103 18 268 16.1 32.2 0.00 0.79 0.20 61 1017.4
20260905152602 18 252 14.5 32.2 0.00 0.79 0.20 61 1017.4
20260905152103 18 214 12.9 30.6 0.00 0.79 0.20 61 1017.4
20260905151603 18 295 11.3 30.6 0.00 0.79 0.20 61 1017.3
20260905151104 18 233 8.0 24.1 0.00 0.79 0.20 62 1017.4
20260905145602 18 257 9.7 22.5 0.00 0.79 0.20 61 1017.4
20260905145103 18 248 8.0 25.7 0.00 0.79 0.20 61 1017.4
20260905144602 18 249 8.0 25.7 0.00 0.79 0.20 61 1017.3
20260905144103 18 273 9.7 27.4 0.00 0.79 0.20 61 1017.3
20260905143602 18 294 11.3 27.4 0.00 0.79 0.20 60 1017.4
20260905143103 18 247 12.9 32.2 0.00 0.79 0.20 58 1017.2
20260905141602 18 261 14.5 29.0 0.00 0.79 0.20 59 1017.3
20260905141103 18 223 14.5 29.0 0.00 0.79 0.20 57 1017.4
20260905140103 18 240 19.3 40.2 0.00 0.79 0.20 56 1017.4
20260905135603 18 236 17.7 40.2 0.00 0.79 0.20 57 1017.3
20260905135103 18 298 12.9 40.2 0.00 0.79 0.20 58 1017.4
20260905134602 18 311 11.3 27.4 0.00 0.79 0.20 57 1017.2
20260905134103 19 244 12.9 30.6 0.00 0.79 0.20 57 1017.3
20260905133601 19 246 14.5 30.6 0.00 0.79 0.20 56 1017.1
20260905133103 18 238 14.5 32.2 0.00 0.79 0.20 58 1017.2
20260905125602 19 298 16.1 37.0 0.00 0.79 0.20 59 1017.2
20260905125103 18 243 16.1 40.2 0.00 0.79 0.20 59 1017.2
20260905124601 18 249 14.5 40.2 0.00 0.79 0.20 60 1017.2
20260905124104 18 254 16.1 32.2 0.00 0.79 0.20 61 1017.1
20260905123601 19 222 14.5 35.4 0.00 0.79 0.20 59 1017.0
20260905123103 19 223 16.1 35.4 0.00 0.79 0.20 59 1017.1
20260905122602 18 244 16.1 32.2 0.00 0.79 0.20 60 1017.1
20260905122103 18 265 16.1 32.2 0.00 0.79 0.20 62 1017.1
20260905121603 17 254 14.5 32.2 0.00 0.79 0.20 61 1017.1
20260905120104 18 248 11.3 24.1 0.00 0.79 0.20 62 1017.1
20260905115602 18 228 11.3 32.2 0.00 0.79 0.20 65 1017.1
20260905115104 17 265 14.5 32.2 0.00 0.79 0.20 66 1017.2
20260905114602 17 264 14.5 38.6 0.00 0.79 0.20 63 1017.2
20260905114103 17 251 16.1 38.6 0.00 0.79 0.20 63 1017.2
20260905113103 18 277 14.5 37.0 0.00 0.79 0.20 62 1017.2
20260905112104 18 258 14.5 40.2 0.00 0.79 0.20 63 1017.2
20260905111602 18 252 16.1 40.2 0.00 0.79 0.20 65 1017.3
20260905111103 18 237 12.9 32.2 0.00 0.79 0.20 64 1017.3
20260905110602 18 234 9.7 29.0 0.00 0.79 0.20 66 1017.3
20260905105602 18 254 16.1 35.4 0.00 0.79 0.20 64 1017.3
20260905105103 18 233 16.1 35.4 0.00 0.79 0.20 63 1017.3
20260905104602 18 238 17.7 35.4 0.00 0.79 0.20 64 1017.1
20260905104104 18 237 17.7 35.4 0.00 0.79 0.20 65 1017.1
20260905103604 18 289 14.5 33.8 0.00 0.79 0.20 66 1017.2
20260905102601 18 265 16.1 33.8 0.00 0.79 0.20 64 1017.3
20260905102103 18 251 14.5 29.0 0.00 0.79 0.20 66 1017.2
20260905101103 17 275 14.5 29.0 0.00 0.79 0.20 70 1017.2
20260905100602 17 247 16.1 32.2 0.00 0.79 0.20 68 1017.3
20260905095602 18 153 16.1 32.2 0.00 0.79 0.20 69 1017.1
20260905095102 17 225 16.1 32.2 0.00 0.79 0.20 69 1017.2
20260905094103 16 167 9.7 22.5 0.00 0.79 0.20 73 1017.1
20260905093601 17 265 12.9 29.0 0.00 0.79 0.20 72 1017.2
20260905093103 17 263 14.5 29.0 0.00 0.79 0.20 71 1017.1
20260905092601 17 234 17.7 30.6 0.00 0.79 0.20 71 1017.0
20260905091602 17 209 14.5 27.4 0.00 0.79 0.20 73 1017.0
20260905091104 17 232 12.9 27.4 0.00 0.79 0.20 74 1016.9
20260905090602 17 179 11.3 22.5 0.00 0.79 0.20 76 1016.9
20260905085103 16 248 16.1 29.0 0.00 0.79 0.20 75 1016.7
20260905084602 16 240 14.5 29.0 0.00 0.79 0.20 74 1016.6
20260905084104 17 221 14.5 29.0 0.00 0.79 0.20 76 1016.5
20260905083103 16 265 11.3 25.7 0.00 0.79 0.20 77 1016.6
20260905082103 16 269 14.5 29.0 0.00 0.79 0.20 79 1016.5
20260905081602 16 271 14.5 29.0 0.00 0.79 0.20 80 1016.6
20260905080601 15 256 9.7 27.4 0.00 0.79 0.20 82 1016.6
20260905075602 15 244 9.7 24.1 0.00 0.79 0.20 82 1016.5
20260905074103 15 174 8.0 24.1 0.00 0.79 0.20 83 1016.5
20260905073602 15 267 9.7 32.2 0.00 0.79 0.20 84 1016.4
20260905072105 14 245 11.3 24.1 0.00 0.79 0.20 85 1016.4
20260905071601 14 240 9.7 25.7 0.00 0.79 0.20 86 1016.3
20260905070601 13 249 11.3 22.5 0.00 0.79 0.20 86 1016.3
20260905065601 13 260 11.3 22.5 0.00 0.79 0.20 87 1016.3
20260905065103 13 247 11.3 25.7 0.00 0.79 0.20 87 1016.1
20260905064602 13 218 9.7 25.7 0.00 0.79 0.20 87 1016.0
20260905064103 13 265 9.7 22.5 0.00 0.79 0.20 88 1016.0
20260905063602 13 263 9.7 22.5 0.00 0.79 0.20 88 1015.9
20260905063103 13 225 8.0 19.3 0.00 0.79 0.20 88 1015.9
20260905062103 13 270 8.0 20.9 0.00 0.79 0.20 88 1015.9
20260905061103 13 217 8.0 19.3 0.00 0.79 0.20 89 1015.9
20260905060602 13 260 11.3 22.5 0.00 0.79 0.20 88 1015.9
20260905060104 13 225 9.7 22.5 0.00 0.79 0.20 88 1015.8
20260905055602 13 234 8.0 20.9 0.00 0.81 0.20 89 1015.8
20260905054602 13 254 8.0 19.3 0.00 0.84 0.20 89 1015.8
20260905053603 13 256 9.7 27.4 0.00 0.84 0.20 89 1015.6
20260905053103 13 279 11.3 22.5 0.00 0.86 0.20 89 1015.5
20260905052602 13 246 9.7 22.5 0.00 0.86 0.20 89 1015.4
20260905052103 13 228 8.0 24.1 0.00 0.86 0.20 89 1015.4